Home   Weather   La Serena   Past weeks

Flag for Chile Past Weather in La Serena, Chile — Yesterday and Last 2 Weeks

Now
63 °F

Clear.


Feels Like: 63 °F
Forecast: 53 / 70 °F
Wind: 3 mph from North

Location: La Serena Airport

Current Time: Dec 10, 2016 at 12:08:06 am

Latest Report: Dec 9, 2016 at 11:00 pm


Visibility: 10 mi

Pressure: 30.09 "Hg

Humidity: 73%

Dew Point: 54 °F

Location of La SerenaLocation

Past Weather in La Serena — Graph

°F

La Serena Temperature Yesterday

Maximum temperature yesterday: 72 °F (at 2:00 pm)
Minimum temperature yesterday: 59 °F (at 4:00 am)
Average temperature yesterday: 65 °F

High & Low Weather Summary for the Past Weeks

 TemperatureHumidityPressure
High73 °F (Dec 4, 2:00 pm)94% (Nov 28, 10:00 pm)30.09 "Hg (Nov 28, 10:00 pm)
Low54 °F (Nov 26, 7:00 am)44% (Dec 9, 4:00 pm)29.86 "Hg (Nov 29, 2:00 am)
Average63 °F73%29.97 "Hg
* Reported Nov 24 11:00 pm — Dec 9 11:00 pm, La Serena, Weather by CustomWeather, © 2016

Note: Actual official high and low records may vary slightly from our data, if they occured in-between our weather recording intervals... More about our weather records

Advertising

La Serena Weather History for the Previous 24 Hours

Scroll right to see more
 ConditionsComfort  
Time TempWeatherWind HumidityBarometerVisibility
11:00 pm
Fri, Dec 9
63 °FClear.3 mph73%30.09 "Hg10 mi
10:00 pm63 °FClear.2 mph73%30.07 "Hg10 mi
9:00 pm63 °FClear.9 mph77%30.07 "Hg10 mi
8:00 pm66 °FScattered clouds.10 mph60%30.04 "HgN/A
7:00 pm68 °FPassing clouds.14 mph60%30.01 "HgN/A
6:00 pm68 °FScattered clouds.16 mph60%30.01 "HgN/A
5:00 pm72 °FPassing clouds.10 mph50%30.01 "HgN/A
4:00 pm72 °FScattered clouds.13 mph44%30.01 "HgN/A
3:00 pm72 °FScattered clouds.13 mph47%30.01 "HgN/A
2:00 pm72 °FPassing clouds.12 mph47%30.04 "HgN/A
1:00 pm70 °FScattered clouds.12 mph50%30.04 "HgN/A
12:00 pm66 °FScattered clouds.10 mph60%30.07 "HgN/A
11:00 am66 °FPartly sunny.9 mph64%30.07 "HgN/A
10:00 am66 °FScattered clouds.2 mph64%30.07 "HgN/A
9:00 am63 °FPartly sunny.2 mph77%30.07 "HgN/A
8:00 am61 °FPartly sunny.3 mph88%30.07 "HgN/A
7:00 am59 °FOvercast.2 mph94%30.04 "HgN/A
6:00 am59 °FOvercast.3 mph88%30.04 "HgN/A
5:00 am59 °FMostly cloudy.5 mph88%30.01 "HgN/A
4:00 am59 °FMostly cloudy.3 mph88%30.01 "HgN/A
3:00 am61 °FDrizzle. Mostly cloudy.6 mph77%30.01 "Hg6 mi
2:00 am63 °FDrizzle. Mostly cloudy.5 mph73%30.01 "Hg6 mi
1:00 am63 °FOvercast.No wind73%30.01 "HgN/A
12:00 am63 °FOvercast.1 mph73%30.01 "HgN/A
Weather by CustomWeather, © 2016

See weather overviewHow to use our weather pages